TITAN 3C TRANSTAGE DEB, 59978

Orbit data source: Space-Track

TITAN 3C TRANSTAGE DEB, 59978 is space debris originally from a launch on Thu, 26 Sep 1968 UTC launched from the Air Force Eastern Test Range (AFETR). Debris objects in space refer to the collection of defunct objects orbiting the Earth. Examples of debris include non-operational satellites, rocket bodies, and fragments generated from explosions, collisions, or faulty payload assembly.

Not visible in the next 10 days
TITAN 3C TRANSTAGE DEB details
Identifier
59978, 1968-081AL
Orbit
Active
Last TLE update16 hours ago
Origin
Flag of USUSAF SSD (US)
ManufacturerUnknown
MissionSpacecraft
Bus & MotorUnknown
MassUnknown
Launch date (UTC)
1968-09-26 (56 years ago)
Launch vehicleUnknown
Launch site
Air Force Eastern Test Range (AFETR)
Object type
Payload
Rocket body
Debris
Shape & HBRUnknown
Radar Cross SectionRCS unknown

Expand to show TLE details & history

TLE from 16 hours ago
0 TITAN 3C TRANSTAGE DEB
1 59978U 68081AL  24336.80663779  .00000045  00000-0  00000-0 0  9994
2 59978   1.1029  32.8029 0101237 255.4455 102.2234  1.02044998 24075
Epoch: 2024-12-01T19:21Z
Definitive object data (Epoch: 2024-12-01T19:21:33.505Z)
Latitude
Longitude30.04439°
Altitude35,391.491 km
Speed3.086 km/s
True Right ascension02h 06m 17s
True Declination0° 00' 00"
Sunlit
Object was in daylight at TLE epoch
Visualization TLE readout
Latitude-0.95694°
Longitude-90.786°
Altitude34,892.38 km
Speed3.123 km/s
Apparent Right ascension18h 19m 43s
Apparent Declination-6° 02' 06"
Sunlit
Object is in daylight
Visualization observer readout
Local Sidereal Time08:51:29
Azimuth55.353° ENE
Elevation-41.987°
Doppler factor1
Orbital elements
Apogee altitude35,719.708 km
Perigee altitude34,875.879 km
Semi-major axis41,675.93 km
Eccentricity0.0101237
Inclination1.1029°
RAAN32.8029°
Arg. of periapsis255.4455°
True anomaly103.35409°
Mean anomaly102.2234°
Eccentric anomaly102.78906°
Mean motion0.2551 °/min
BSTARUnknown
Orbital period1411.2 mins
Loading maneuver chart data...

TITAN 3C TRANSTAGE DEB Visibility forecast

Observer location: undefined°, undefined

TITAN 3C TRANSTAGE DEB is not visible in the next 10 days
Span
Click to sort rows by Start time (UTC) header in descending order
Start Az.
Max El. time (UTC)
Max El. Az.
Max El.
End time (UTC)
End Az.
|